Flag for Germany Weather past 2 weeks in Ahrensburg, Schleswig-Holstein, Germany

Now
63 °F

Clear.


Feels Like: 63 °F
Forecast: 56 / 65 °F
Wind: 5 mph from Southeast

Location: Hamburg-Fuhlsbuettel

Current Time: Aug 29, 2014 at 3:55:31 AM

Latest Report: Aug 29, 2014 at 3:20 AM


Visibility: 10 mi

Pressure: 29.92 "Hg

Humidity: 73%

Dew point: 54 °F

Location of AhrensburgLocation

Historic Weather in Ahrensburg — Graph

°F

Ahrensburg temperature yesterday

Maximum temperature yesterday: 73 °F (at 2:20 PM)
Minimum temperature yesterday: 45 °F (at 3:50 AM)
Average temperature yesterday: 61 °F

Past Weeks' High & Low Weather Summary

 TemperatureHumidityPressure
High73 °F (Aug 28, 2:20 PM)100% (Aug 15, 3:20 AM)30.04 "Hg (Aug 15, 3:20 AM)
Low39 °F (Aug 26, 4:50 AM)33% (Aug 28, 2:50 PM)29.47 "Hg (Aug 18, 10:20 AM)
Average57 °F80%29.83 "Hg
* Reported Aug 14 2:20 AM — Aug 29 2:20 AM, Ahrensburg, Weather by CustomWeather, © 2014

Note: Actual official high and low records may vary slightly from our data, if they occured in-between our weather recording intervals... More about our weather records

Advertising

Ahrensburg weather history for previous 24 hours

 ConditionsComfort  
Time TempWeatherWind HumidityBarometerVisibility
2:20 AM
Aug 29
63 °FPartly cloudy.5 mph68%29.92 "HgN/A
1:50 AM64 °FPartly cloudy.6 mph60%29.92 "HgN/A
1:20 AM64 °FPartly cloudy.8 mph60%29.95 "HgN/A
12:50 AM63 °FClear.6 mph64%29.92 "Hg10 mi
12:20 AM64 °FClear.6 mph60%29.95 "Hg10 mi
11:50 PM
Aug 28
64 °FPassing clouds.7 mph60%29.95 "HgN/A
11:20 PM64 °FClear.7 mph60%29.95 "Hg10 mi
10:50 PM64 °FClear.6 mph60%29.95 "Hg10 mi
10:20 PM64 °FClear.6 mph60%29.95 "Hg10 mi
9:50 PM66 °FClear.7 mph52%29.95 "Hg10 mi
9:20 PM66 °FPassing clouds.7 mph52%29.95 "HgN/A
8:50 PM68 °FSunny.6 mph49%29.95 "Hg10 mi
8:20 PM70 °FPassing clouds.6 mph43%29.95 "HgN/A
7:50 PM70 °FPassing clouds.6 mph43%29.95 "HgN/A
7:20 PM72 °FPassing clouds.7 mph38%29.95 "HgN/A
6:50 PM72 °FPassing clouds.8 mph38%29.95 "HgN/A
6:20 PM73 °FPassing clouds.8 mph36%29.95 "HgN/A
5:20 PM73 °FSunny.8 mph33%29.98 "Hg10 mi
4:50 PM73 °FSunny.9 mph36%29.98 "Hg10 mi
4:20 PM73 °FPassing clouds.8 mph36%29.98 "HgN/A
3:50 PM73 °FPassing clouds.9 mph33%29.98 "HgN/A
3:20 PM73 °FPassing clouds.9 mph33%29.98 "HgN/A
2:50 PM73 °FPassing clouds.10 mph33%29.98 "HgN/A
2:20 PM73 °FSunny.7 mph38%30.01 "Hg10 mi
1:50 PM72 °FPassing clouds.12 mph38%30.01 "HgN/A
1:20 PM70 °FPassing clouds.10 mph40%30.01 "HgN/A
12:50 PM70 °FPassing clouds.8 mph43%30.01 "HgN/A
12:20 PM70 °FPassing clouds.7 mph40%30.01 "HgN/A
11:50 AM70 °FPassing clouds.6 mph50%30.04 "HgN/A
11:20 AM68 °FPassing clouds.6 mph49%30.04 "HgN/A
10:50 AM66 °FPassing clouds.5 mph56%30.04 "HgN/A
10:20 AM64 °FPassing clouds.6 mph60%30.04 "HgN/A
9:50 AM63 °FPassing clouds.6 mph68%30.04 "HgN/A
9:20 AM61 °FSunny.5 mph77%30.04 "Hg10 mi
8:50 AM57 °FPassing clouds.3 mph88%30.04 "HgN/A
8:20 AM55 °FSunny.1 mph82%30.04 "Hg10 mi
7:50 AM50 °FSunny.2 mph94%30.04 "Hg10 mi
7:20 AM46 °FClear.2 mph100%30.04 "Hg10 mi
6:50 AM46 °FFog.2 mph100%30.04 "HgN/A
6:20 AM45 °FFog.2 mph100%30.04 "HgN/A
5:50 AM45 °FFog.1 mph100%30.04 "HgN/A
5:20 AM45 °FFog.1 mph100%30.04 "HgN/A
4:50 AM45 °FFog.1 mph100%30.04 "HgN/A
4:20 AM46 °FFog.1 mph100%30.04 "HgN/A
3:50 AM45 °FFog.1 mph100%30.04 "HgN/A
3:20 AM46 °FFog.1 mph100%30.04 "HgN/A
Weather by CustomWeather, © 2014

See weather overviewHow to use our weather pages